Please be sure to check the latest weather conditions by clicking the link and viewing our local weather information!

Check Weather

Welcome to Lakeway Airpark (3R9)

FromTheAir

We’re a community airpark nestled within the town of Lakeway, Texas (17 miles northwest of downtown Austin).

Lakeway Airpark, Inc. was formed by Lakeway residents and interested parties to own and manage Lakeway Airpark (3R9).

The Airpark is a privately owned not for profit public use airport for residents and guests of Lakeway. No public funds are used and the airport is supported by fees and fuel sales at the airport.

Lakeway Airpark is an unmanned facility open for use from Sunrise to Sunset seven days a week. Takeoffs and landings are not permitted at night, between Sunset and Sunrise, by City Ordinance.

Quick Weather Info

Available data for KAUS from the past 2 hours

METAR
KAUS 011853Z 02011KT 5SM BR OVC005 05/05 A3027 RMK AO2 RAB1757E09 SLP257 P0000 T00500050
KAUS 011850Z 01012KT 5SM BR OVC005 05/05 A3027 RMK AO2 RAB1757E09 P0000
KAUS 011753Z 01013KT 2SM BR OVC005 04/04 A3028 RMK AO2 SFC VIS 3 DZE19 SLP259 P0000 60000 T00440044 10044 20022 58003
PIREPS 30sm
HYI UA /OV HYI/TM 1729/FL115/TP SW4/SK OVC005-TOP080